659  
ASUS44 KMOB 221812  
RWRMOB  
REGIONAL WEATHER ROUNDUP  
NATIONAL WEATHER SERVICE MOBILE AL  
100 PM CDT MON JUL 22 2019  
 
NOTE: "FAIR" INDICATES FEW OR NO CLOUDS BELOW 12,000 FEET WITH NO  
SIGNIFICANT WEATHER AND/OR S TO VISIBILITY
.  
 
* THESE STATIONS ARE PART OF THE UNIVERSITY OF SOUTH ALABAMA  
MESONET AND ARE NOT UNDER NWS OR FAA QUALITY CONTROL.
 
 
ALZ061>064-221900-  
COASTAL ALABAMA  
 
CITY SKY/WX TMP DP RH WIND PRES REMARKS
 
MOBILE REG APT PTSUNNY 79 74 84 E10 30.01F  
6HR MIN TEMP: 74; 6HR MAX TEMP: 87; 6HR PCP: 0.45;  
 
BROOKLEY FIELD PTSUNNY 85 75 72 S7 30.01F  
6HR MIN TEMP: 78; 6HR MAX TEMP: 89; 6HR PCP: 0.01;  
 
USA CAMPUS* N/A 75 75 100 E6 30.02S  
DOG RIVER* N/A 82 75 78 SE6 30.01S  
 
 
CITY SKY/WX TMP DP RH WIND PRES REMARKS
 
GULF SHORES PTSUNNY 87 74 65 S9 30.00F  
 

 
 
ALZ051>060-221900-  
INTERIOR SOUTHWEST AND SOUTH CENTRAL ALABAMA  
 
CITY SKY/WX TMP DP RH WIND PRES REMARKS
 
GREENVILLE PTSUNNY 88 68 51 SW6 30.00F  
6HR MIN TEMP: 73; 6HR MAX TEMP: 90;  
 
EVERGREEN FAIR 88 68 51 CALM 30.00F  
6HR MIN TEMP: 73; 6HR MAX TEMP: 90;  
 
ATMORE* N/A 88 75 66 S5 30.01F HX 97  
ANDALUSIA/OPP FAIR 93 70 46 S3 30.00F HX 99  
6HR MIN TEMP: 76; 6HR MAX TEMP: 93; 6HR PCP: TRACE;  
 
ANDALUSIA* NOT AVBL  
FLORALA APT FAIR 89 68 49 S5 30.01F  
6HR MIN TEMP: 74; 6HR MAX TEMP: 90;  
 
FLORALA* N/A 72 48 43 CALM 30.00F  
 

 
 
FLZ001>006-221900-  
WESTERN FLORIDA PANHANDLE  
 
CITY SKY/WX TMP DP RH WIND PRES REMARKS
 
PENSACOLA FAIR 86 76 71 SE6 30.01F HX 96  
6HR MIN TEMP: 77; 6HR MAX TEMP: 87; 6HR PCP: TRACE;  
 
NAS PENSACOLA PTSUNNY 87 74 64 S10 30.00F HX 95  
6HR MIN TEMP: 76; 6HR MAX TEMP: 87;  
 
MILTON PTSUNNY 87 72 60 S15 30.00F  
6HR MIN TEMP: 73; 6HR MAX TEMP: 88;  
 
WHTNG S FIELD PTSUNNY 86 74 67 S14 30.00F  
6HR MIN TEMP: 73; 6HR MAX TEMP: 87;  
 
 
CITY SKY/WX TMP DP RH WIND PRES REMARKS
 
JAY* N/A 86 70 58 S2 30.02F  
DUKE FIELD LGT RAIN 78 74 85 SW9 30.02S  
CRESTVIEW LGT RAIN 79 74 84 SW8 30.03R  
6HR MIN TEMP: 74; 6HR MAX TEMP: 90; 6HR PCP: 0.02;  
 
VALPARAISO MOSUNNY 85 73 66 SW7 30.01S  
6HR MIN TEMP: 76; 6HR MAX TEMP: 87; 6HR PCP: TRACE;  
 
DESTIN PTSUNNY 85 73 67 VRB7 30.01F  
6HR MIN TEMP: 76; 6HR MAX TEMP: 88; 6HR PCP: TRACE;  
 

 
 
MSZ076-079-221900-  
INTERIOR SOUTHEAST MISSISSIPPI  
 
CITY SKY/WX TMP DP RH WIND PRES REMARKS
 
LEAKESVILLE* N/A 86 75 70 S3 30.01F HX 95  
AGRICOLA* N/A 86 72 62 CALM 30.00F  
 

 
 
MARINE OBSERVATIONS  
 
STATION/POSITION TIME TEMP WIND PRES WAVE
 
AIR SEA DIR/SP/G HT/PER  
(UTC) (F) (DEG/KT/KT) (MB) (FT/S)  
PETIT BOIS ISLND 1718 84 220/ 5/ 6 1016.4  
GRAND BAY 1645 83 170/ 6 1017.0F  
KATRINA CUT 1730 82 250/ 6 1016.9S  
CEDAR POINT 1700 81 200/ 7 1016.3  
E DAUPHIN ISLAND 1700 83 190/ 5/ 7 1016.4F  
USCG MOBILE BAY 1718 84 87 120/ 7/ 8 1016.2  
STATE DOCKS 1718 84 88 1016.0  
MEAHER PARK 1730 83 190/ 4 1016.3S  
WEEKS BAY 1645 87 1016.0S  
FORT MORGAN 1730 83 210/ 7/ 9 1016.5F  
12 S ORANGE BCH 1750 80 85 180/ 6/ 10 1016.5F 2/ 4  
PENSACOLA BAY 1730 84 87 170/ 3/ 5 1016.4F  
64 S DAUPHIN ISL 1800 83 220/ 4/ 4 1017.1  
 

 
 
SELECTED LOCATIONS ACROSS THE REGION  
 
CITY SKY/WX TMP DP RH WIND PRES REMARKS
 
NEW ORLEANS HVY RAIN 83 74 74 E3G20 30.00S  
GULFPORT LGT RAIN 80 75 84 S7 30.00S  
PASCAGOULA AP FAIR 90 72 55 S8 30.00F HX 97  
PASCAGOULA* N/A 84 73 70 CALM 29.99F  
HATTIESBURG FAIR 87 74 64 NE6 30.00F HX 95  
LAUREL FAIR 86 74 67 VRB3 30.01F  
MERIDIAN FAIR 86 73 65 S6 29.99F  
JACKSON PTSUNNY 87 72 60 NW5 29.98F  
MONTGOMERY PTSUNNY 88 72 58 SW5 29.99F  
TROY FAIR 88 71 57 SW7 30.01F  
ASHFORD* NOT AVBL  
DOTHAN FAIR 88 68 51 SW3 30.04F  
PANAMA CITY PTSUNNY 88 72 58 S9 30.00F  
 

 
 
 
 
CLICK HERE TO GO TO PREVIOUS BULLETINS.

The Nexlab AL Page
The Nexlab FL Page
The Nexlab MS Page Main Text Page